Weather reports worldwide

Advertisment
J6-A, Netherlands (6211): temperature & dewpoint: 16.02.2020 08:00:00 - 22.02.2020 08:00:00 (CET)J6-A, Netherlands (6211): wind speed & gusts: 16.02.2020 08:00:00 - 22.02.2020 08:00:00 (CET)J6-A, Netherlands (6211): wind direction: 16.02.2020 08:00:00 - 22.02.2020 08:00:00 (CET)J6-A, Netherlands (6211): reduced air pressure: 16.02.2020 08:00:00 - 22.02.2020 08:00:00 (CET)J6-A, Netherlands (6211): visibility: 16.02.2020 08:00:00 - 22.02.2020 08:00:00 (CET)
Date & Time tt [°C] td [°C] ff [km/h] ff [kn] fx [km/h] fx [kn] dd ppp [hPa] vv [km]
22.02.2020 08:00:00 9,0 5,7 81 44 86 47 SSW 1005,6 -
22.02.2020 07:00:00 8,8 5,4 83 45 83 45 SSW 1005,5 -
22.02.2020 06:00:00 8,6 5,4 80 43 86 47 SSW 1006,2 -
22.02.2020 05:00:00 8,7 5,2 81 44 86 47 SSW 1006,4 10
22.02.2020 04:00:00 8,7 5,1 80 43 83 45 SW 1007,8 10
22.02.2020 03:00:00 8,5 5,1 76 41 79 43 SSW 1008,9 10
22.02.2020 02:00:00 8,5 5,0 68 37 83 45 SSW 1009,1 11
22.02.2020 01:00:00 8,4 5,1 50 27 72 39 SSW 1010,4 11
22.02.2020 00:00:00 8,8 4,9 67 36 68 37 SW 1012,0 10
21.02.2020 23:00:00 8,8 4,9 68 37 72 39 SSW 1012,3 10
21.02.2020 22:00:00 8,6 5,0 65 35 72 39 SSW 1013,2 10
21.02.2020 21:00:00 8,6 5,0 72 39 72 39 SSW 1013,1 10
21.02.2020 20:00:00 8,5 4,9 65 35 72 39 SSW 1013,8 10
21.02.2020 19:00:00 8,3 4,8 70 38 72 39 SSW 1014,9 10
21.02.2020 18:00:00 8,1 4,8 67 36 68 37 SSW 1015,4 10
21.02.2020 17:00:00 7,4 5,3 68 37 68 37 SSW 1015,0 8
21.02.2020 16:00:00 7,4 4,5 67 36 72 39 SSW 1015,1 10
21.02.2020 15:00:00 7,0 4,3 68 37 76 41 SSW 1014,9 9
21.02.2020 14:00:00 7,4 3,5 67 36 79 43 SSW 1015,8 10
21.02.2020 13:00:00 6,9 3,5 63 34 68 37 SSW 1016,2 10
21.02.2020 12:00:00 6,7 3,4 65 35 68 37 SSW 1016,8 10
21.02.2020 11:00:00 6,8 3,2 61 33 58 31 SW 1016,9 10
21.02.2020 10:00:00 6,5 3,0 52 28 61 33 SW 1016,5 10
21.02.2020 09:00:00 6,7 2,8 67 36 72 39 WSW 1017,0 10
21.02.2020 08:00:00 6,6 2,7 65 35 68 37 WSW 1016,6 10
21.02.2020 07:00:00 6,4 2,3 72 39 72 39 WSW 1016,0 10
21.02.2020 06:00:00 6,4 2,3 67 36 65 35 WSW 1015,5 10
21.02.2020 05:00:00 6,3 2,1 68 37 68 37 WSW 1014,8 10
21.02.2020 04:00:00 6,5 2,0 70 38 72 39 WSW 1014,2 10
21.02.2020 03:00:00 6,3 1,7 70 38 72 39 WSW 1013,3 10
21.02.2020 02:00:00 6,5 2,1 74 40 76 41 WSW 1012,5 10
21.02.2020 01:00:00 6,5 1,7 70 38 76 41 W 1011,5 10
21.02.2020 00:00:00 6,4 1,1 74 40 83 45 W 1010,5 10
20.02.2020 23:00:00 6,4 1,0 74 40 76 41 W 1009,6 10
20.02.2020 22:00:00 6,2 1,1 74 40 76 41 W 1008,5 10
20.02.2020 21:00:00 6,7 0,1 74 40 76 41 W 1007,4 10
20.02.2020 20:00:00 6,5 2,8 52 28 83 45 W 1006,6 10
20.02.2020 19:00:00 5,6 2,6 55 30 68 37 WNW 1004,6 9
20.02.2020 18:00:00 5,9 3,5 44 24 54 29 W 1002,7 10
20.02.2020 17:00:00 5,3 2,5 63 34 65 35 NW 1000,5 9
20.02.2020 16:00:00 6,5 5,6 61 33 65 35 WSW 999,3 6
20.02.2020 15:00:00 8,3 6,3 54 29 65 35 SSW 999,7 9
20.02.2020 14:00:00 8,2 6,1 63 34 65 35 SSW 1001,1 10
20.02.2020 13:00:00 8,1 6,1 61 33 61 33 SSW 1001,9 10
20.02.2020 12:00:00 8,0 6,0 63 34 65 35 SSW 1003,8 10
20.02.2020 11:00:00 8,1 5,9 63 34 61 33 SSW 1004,5 10
20.02.2020 10:00:00 7,8 6,0 55 30 58 31 SSW 1005,8 10
20.02.2020 09:00:00 7,9 5,9 59 32 58 31 SSW 1006,1 10
20.02.2020 08:00:00 7,9 6,0 55 30 54 29 SSW 1006,1 10
20.02.2020 07:00:00 7,8 6,0 52 28 54 29 SSW 1006,6 10
20.02.2020 06:00:00 7,7 6,0 44 24 50 27 SSW 1007,2 10
20.02.2020 05:00:00 7,7 6,0 50 27 50 27 SSW 1008,0 10
20.02.2020 04:00:00 7,7 6,1 52 28 50 27 SSW 1008,3 9
20.02.2020 03:00:00 7,9 6,1 54 29 54 29 SSW 1009,0 10
20.02.2020 02:00:00 7,9 6,1 52 28 65 35 SSW 1009,3 10
20.02.2020 01:00:00 7,8 6,2 50 27 68 37 SSW 1010,0 10
20.02.2020 00:00:00 7,4 6,2 50 27 50 27 SSW 1011,4 8
19.02.2020 23:00:00 6,8 6,0 48 26 50 27 SSW 1011,6 6
19.02.2020 22:00:00 6,4 5,7 46 25 50 27 SSW 1012,0 8
19.02.2020 21:00:00 6,3 5,0 46 25 47 25 SSW 1012,6 8
19.02.2020 20:00:00 6,3 3,8 39 21 40 21 SSW 1013,4 10
19.02.2020 19:00:00 6,3 3,2 42 23 47 25 SSW 1013,6 10
19.02.2020 18:00:00 6,3 3,0 50 27 47 25 SW 1013,9 10
19.02.2020 17:00:00 6,3 2,2 48 26 47 25 SW 1014,2 10
19.02.2020 16:00:00 6,3 2,4 52 28 54 29 WSW 1016,2 10
19.02.2020 15:00:00 6,0 2,3 55 30 54 29 WSW 1015,0 10
19.02.2020 14:00:00 6,1 1,8 55 30 58 31 WSW 1015,0 10
19.02.2020 13:00:00 6,2 1,7 55 30 54 29 W 1016,3 10
19.02.2020 12:00:00 6,2 1,4 55 30 58 31 W 1015,7 10
19.02.2020 11:00:00 5,9 1,5 57 31 58 31 W 1013,6 10
19.02.2020 10:00:00 6,2 1,6 55 30 61 33 W 1013,1 10
19.02.2020 09:00:00 6,2 1,5 61 33 61 33 W 1012,2 10
19.02.2020 08:00:00 6,0 1,4 61 33 68 37 W 1011,1 10
19.02.2020 07:00:00 6,1 1,1 50 27 68 37 W 1010,4 18
19.02.2020 06:00:00 6,0 1,4 70 38 68 37 W 1009,8 10
19.02.2020 05:00:00 6,0 0,8 61 33 65 35 W 1009,0 10
19.02.2020 04:00:00 6,0 1,3 65 35 68 37 W 1008,4 10
19.02.2020 03:00:00 6,2 1,6 50 27 68 37 W 1008,2 19
19.02.2020 02:00:00 6,4 0,4 65 35 68 37 W 1007,8 10
19.02.2020 01:00:00 6,5 1,4 59 32 65 35 W 1008,0 10
19.02.2020 00:00:00 6,6 1,5 57 31 65 35 W 1007,5 10
18.02.2020 23:00:00 6,9 3,1 63 34 65 35 WSW 1007,8 10
18.02.2020 22:00:00 6,8 4,1 57 31 61 33 WSW 1008,0 10
18.02.2020 21:00:00 6,5 3,4 52 28 76 41 SW 1007,5 10
18.02.2020 20:00:00 7,8 4,2 65 35 68 37 SSW 1009,4 10
18.02.2020 19:00:00 7,8 4,4 61 33 65 35 SSW 1009,9 10
18.02.2020 18:00:00 7,7 4,5 55 30 58 31 SW 1010,0 10
18.02.2020 17:00:00 7,8 4,0 54 29 58 31 SW 1010,7 10
18.02.2020 16:00:00 7,4 4,0 65 35 72 39 SW 1011,2 10
18.02.2020 15:00:00 7,2 3,5 65 35 68 37 SW 1012,2 10
18.02.2020 14:00:00 6,8 3,1 61 33 68 37 SW 1012,0 10
18.02.2020 13:00:00 6,7 2,9 59 32 65 35 SW 1013,6 10
18.02.2020 12:00:00 6,3 2,5 65 35 65 35 SW 1013,3 10
18.02.2020 11:00:00 6,2 2,4 65 35 68 37 SW 1013,1 10
18.02.2020 10:00:00 6,2 1,9 72 39 - - WSW 1012,7 10
18.02.2020 09:00:00 6,2 2,0 67 36 68 37 WSW 1011,9 10
18.02.2020 08:00:00 6,2 1,5 67 36 72 39 WSW 1011,3 10
18.02.2020 07:00:00 6,1 0,9 70 38 72 39 WSW 1010,9 10
18.02.2020 06:00:00 6,2 1,2 74 40 79 43 WSW 1010,4 10
18.02.2020 05:00:00 6,4 1,0 80 43 79 43 WSW 1010,1 10
18.02.2020 04:00:00 6,4 1,2 78 42 83 45 WSW 1009,9 10
18.02.2020 03:00:00 6,4 0,8 76 41 79 43 WSW 1009,5 10
18.02.2020 02:00:00 6,4 1,4 65 35 72 39 WSW 1009,4 10
18.02.2020 01:00:00 4,7 2,1 67 36 76 41 WSW 1007,6 10
18.02.2020 00:00:00 7,0 2,0 70 38 68 37 WSW 1007,2 10
17.02.2020 23:00:00 7,3 2,8 65 35 68 37 WSW 1006,4 10
17.02.2020 22:00:00 7,8 3,7 61 33 65 35 WSW 1005,8 10
17.02.2020 21:00:00 8,0 4,6 59 32 58 31 SW 1005,4 10
17.02.2020 20:00:00 7,8 4,8 55 30 54 29 SW 1004,7 10
17.02.2020 19:00:00 7,8 4,5 59 32 58 31 SW 1003,9 10
17.02.2020 18:00:00 8,1 4,4 59 32 58 31 SW 1003,3 -
17.02.2020 17:00:00 7,8 4,2 54 29 61 33 SW 1002,4 -
17.02.2020 16:00:00 7,7 4,0 63 34 65 35 SW 1003,8 -
17.02.2020 15:00:00 7,6 3,5 61 33 68 37 SW 1002,8 -
17.02.2020 14:00:00 7,4 2,9 68 37 72 39 SW 1003,3 -
17.02.2020 13:00:00 7,4 2,6 70 38 72 39 SW 1001,4 -
17.02.2020 12:00:00 7,3 2,5 65 35 76 41 SW 1002,5 -
17.02.2020 11:00:00 7,2 2,4 58 31 83 45 SW 1001,2 -
17.02.2020 10:00:00 7,3 2,0 65 35 86 47 SW 1000,2 -
17.02.2020 09:00:00 7,2 1,9 61 33 79 43 SW 999,3 -
17.02.2020 08:00:00 7,3 1,9 61 33 86 47 SW 998,9 -
17.02.2020 07:00:00 7,4 2,0 68 37 90 49 SW 998,4 -
17.02.2020 06:00:00 7,2 2,1 61 33 83 45 SW 998,2 -
17.02.2020 05:00:00 7,2 1,7 68 37 94 51 SW 997,6 -
17.02.2020 04:00:00 7,2 1,6 76 41 94 51 SW 997,0 -
17.02.2020 03:00:00 7,0 2,1 68 37 90 49 SW 996,4 -
17.02.2020 02:00:00 6,9 2,5 76 41 97 53 SW 995,3 -
17.02.2020 01:00:00 7,0 2,8 72 39 97 53 SW 993,7 10
17.02.2020 00:00:00 7,9 2,8 76 41 83 45 SW 993,7 10
16.02.2020 23:00:00 7,9 3,2 76 41 83 45 SW 993,2 10
16.02.2020 22:00:00 7,8 3,3 74 40 79 43 SW 992,8 10
16.02.2020 21:00:00 7,9 3,6 74 40 76 41 SW 992,4 10
16.02.2020 20:00:00 7,6 4,3 61 33 97 53 SW 991,9 10
16.02.2020 19:00:00 8,0 4,0 72 39 79 43 SW 990,8 10
16.02.2020 18:00:00 8,0 4,4 57 31 65 35 SW 989,6 10
16.02.2020 17:00:00 7,6 6,1 42 23 50 27 SSW 988,8 10
16.02.2020 16:00:00 6,9 5,0 46 25 83 45 WSW 988,6 10
16.02.2020 15:00:00 8,0 7,1 46 25 54 29 SSW 988,6 5
16.02.2020 14:00:00 9,1 5,7 48 26 61 33 SSW 989,3 10
16.02.2020 13:00:00 9,4 5,8 55 30 65 35 SSW 989,9 10
16.02.2020 12:00:00 8,0 5,8 57 31 54 29 SSW 989,6 10
16.02.2020 11:00:00 8,0 6,3 44 24 54 29 SW 988,6 10
16.02.2020 10:00:00 8,0 7,3 54 29 54 29 SW 987,5 6
16.02.2020 09:00:00 8,3 8,0 48 26 72 39 SW 987,6 3,2
16.02.2020 08:00:00 10,1 8,7 81 44 83 45 S 987,6 5

tt = temperature
td = dewpoint
ff = wind speed
fx = gusts
dd = wind direction
ppp = reduced air pressure
vv = visibility

Next stations